Regional Weather Roundup
Issued by NWS

Home | Current Version | Previous Version | Text Only | Print | Product List | Glossary Off
Versions: 1 2 3 4 5 6 7 8 9 10 11 12 13 14 15 16 17 18 19 20 21 22 23 24 25 26 27 28 29 30 31 32 33 34 35 36 37 38 39 40 41 42 43 44 45 46 47 48 49 50

000
ASUS43 KLOT 280509
RWRIL

ILLINOIS REGIONAL WEATHER ROUNDUP
NATIONAL WEATHER SERVICE CHICAGO/ROMEOVILLE IL
1200 AM CDT SUN AUG 28 2016

NOTE: "FAIR" INDICATES FEW OR NO CLOUDS BELOW 12,000 FEET WITH NO
SIGNIFICANT WEATHER AND/OR OBSTRUCTIONS TO VISIBILITY.

* THESE STATIONS ARE NOT UNDER NWS QUALITY CONTROL. THEY ALSO MAY NOT
  REPORT WEATHER SUCH AS PRECIPITATION OR FOG.

ILZ001-002-007-009-015-016-024-280600-
NORTHWEST ILLINOIS

CITY           SKY/WX    TMP DP  RH WIND       PRES   REMARKS
MOLINE         MOCLDY    73  70  90 NE5       30.09R
STERLING*      CLOUDY    73  71  93 W5        30.11R
SAVANNA*       PTCLDY    68  67  98 CALM      30.11R
$$

ILZ003-004-008-010-011-017-018-280600-
NORTH CENTRAL ILLINOIS

CITY           SKY/WX    TMP DP  RH WIND       PRES   REMARKS
ROCKFORD       CLOUDY    72  69  90 CALM      30.12R
FREEPORT*      PTCLDY    64  63  97 CALM      30.13S
ROCHELLE*      CLOUDY    71  71  98 CALM      30.11R
DE KALB*       CLOUDY    70  68  95 W5        30.12R
$$

ILZ005-006-012>014-019>023-280600-
NORTHEAST ILLINOIS

CITY           SKY/WX    TMP DP  RH WIND       PRES   REMARKS
CHICAGO-OHARE  MOCLDY    75  71  87 W5        30.08S
CHICAGO-MIDWAY CLOUDY    79  71  76 CALM      30.08S HX  82
AURORA         PTCLDY    70  67  90 CALM      30.10S
LANSING*       CLOUDY    74  74 100 S5        30.10R
JOLIET*        CLOUDY    73  73  98 CALM      30.10R
WAUKEGAN       CLOUDY    73  71  93 CALM      30.09R
DUPAGE AIRPORT PTCLDY    72  68  87 CALM      30.09S
KANKAKEE*      CLOUDY    75  73  93 CALM      30.11R
WHEELING       MOCLDY    76  71  85 CALM      30.10S
MORRIS*        MOCLDY    73  71  96 CALM      30.09R
ROMEOVILLE*    PTCLDY    71  71 100 S3        30.10R
NORTHERLY ISL    N/A     77  70  79 CALM        N/A
$$

LMZ740>746-280600-
SOUTHERN LAKE MICHIGAN

STATION/POSITION SKY/WX   TEMP    WIND        PRES    VSBY  WAVE
                          AIR SEA DIR/SP/G                  HT/PER
                          (F)     (DEG/KT/KT) (MB)    (MI)  (FT/S)
SOUTHERN BUOY              76 75  220/ 10/ 10 1017.8          1
WILMETTE HARBOR            74 70  230/  2/  2   N/A           1
HARRISON CRIB              81     260/  7/  7   N/A
BURNHAM HARBOR             76     220/  2/  4   N/A
CALUMET HARBOR             77     210/  3/  3 1018.2R
BURNS HARBOR               78     190/  6/ 11 1019.3R
MICHIGAN CITY              78     170/ 10/ 11   N/A
MICHIGAN CITY 6N           76 76  200/  4/  6   N/A           1
ST. JOSEPH                 76 75  200/  6/  6 1018.6R         1/ 2
$$

ILZ025>027-034>036-040-047-049-050-058-095>099-280600-
WEST-CENTRAL ILLINOIS

CITY           SKY/WX    TMP DP  RH WIND       PRES   REMARKS
QUINCY         CLEAR     76  73  91 SE6       30.08S
GALESBURG*     CLEAR     73  72  97 CALM      30.10R
MACOMB*        CLEAR     71  71  98 CALM      30.11R
JACKSONVILLE*  CLOUDY    75  71  87 SE3       30.09S
PITTSFIELD*    CLOUDY    75  70  84 SW3       30.11R
$$

ILZ028>032-037-038-041>044-048-051>054-059>061-280600-
CENTRAL ILLINOIS

CITY           SKY/WX    TMP DP  RH WIND       PRES   REMARKS
PONTIAC        CLOUDY    74  72  95 SE5       30.12R
BLOOMINGTON    MOCLDY    72  68  87 SW3       30.12R
DECATUR        MOCLDY    74  68  81 SE3       30.11R
PEORIA         CLOUDY    75  74  96 CALM      30.10R
LACON*         CLOUDY    73  71  92 CALM      30.09R
LINCOLN*       MOCLDY    74  71  89 CALM      30.09R
SPRINGFIELD    CLOUDY    77  74  90 CALM      30.09S
TAYLORVILLE    PTCLDY    74  73  96 CALM      30.10S
$$

ILZ033-039-045-046-055>057-062-063-280600-
EAST-CENTRAL ILLINOIS

CITY           SKY/WX    TMP DP  RH WIND       PRES   REMARKS
CHAMPAIGN      PTCLDY    71  67  87 S3        30.12R
RANTOUL*       CLOUDY    73  71  95 CALM      30.13R
MATTOON        CLEAR     73  71  93 CALM      30.12R
PARIS*         CLOUDY    71  71  98 CALM      30.12R
$$

ILZ079-100>102-280600-
SOUTHWEST ILLINOIS

CITY           SKY/WX    TMP DP  RH WIND       PRES   REMARKS
ALTON          PTCLDY    69  69  99 CALM      30.11R FOG
BELLEVILLE     CLEAR     75  74  99 W2        30.09R
CAHOKIA*       PTCLDY    75  72  90 CALM      30.10R
SPARTA*        CLEAR     73  71  96 CALM      30.11S
$$

ILZ064>066-069>071-074>076-080>082-084>086-088>090-092>094-280600-
SOUTH-CENTRAL ILLINOIS

CITY           SKY/WX    TMP DP  RH WIND       PRES   REMARKS
CARBONDALE     CLEAR     73  71  93 NW3       30.11R
CAIRO*         CLEAR     73  73 100 CALM      30.10R
EFFINGHAM*     CLEAR     72  72 100 CALM      30.13R FOG
MARION         PTCLDY    75  75 100 CALM      30.12R
MT. VERNON     CLEAR     72  66  83 CALM      30.12S
CENTRALIA*     CLEAR     73  73 100 CALM      30.10S
SALEM*         CLEAR     76  73  90 CALM      30.11S
METROPOLIS*    CLEAR     75  74  96 CALM      30.10S
$$

ILZ067-068-072-073-078-083-087-091-280600-
SOUTHEAST ILLINOIS

CITY           SKY/WX    TMP DP  RH WIND       PRES   REMARKS
LAWRENCEVILLE  CLEAR     76  75  97 E3        30.11S
FLORA*         CLEAR     74  73  95 CALM      30.11S
FAIRFIELD*     PTCLDY    76  74  95 CALM      30.10S
HARRISBURG*    CLEAR     74  74  99 CALM      30.10F
ROBINSON*      PTCLDY    71  71  99 S5        30.12S
CARMI*         PTCLDY    75  75 100 CALM      30.10S
$$

ABBREVIATIONS USED IN REMARKS
   TC - TEMPERATURE IN CELSIUS
  WCI - WIND CHILL INDEX
   HX - HEAT INDEX
  VSB - VISIBILITY
$$





USA.gov is the U.S. government's official web portal to all federal, state and local government web resources and services.